Content
SEND FEEDBACK

Daily
Averages
Monthly
Summary
United States of America

DALTON, GEORGIA


Home > North America > United States > Georgia
Elevation: 730 feet     Latitude: 34 45N     Longitude: 084 57W

WEATHER
 
SELECT A DAY
Number of Records: 399,482;   Date Range: 5/11/98 - 12/18/14
 
SHARE

PRINT THIS DATA

[ ← Previous Day ]
WEATHER ALMANAC - FEBRUARY 13, 2013
[ Next Day → ]
[ °C ]   °F
Weather ElementAverageHighLow
Temperature43.2 °F46.4 °F (10:55 am)37.4 °F (9:35 pm)
Dewpoint40.9 °F46.4 °F (10:55 am)35.6 °F (5:55 pm)
Humidity91.7 %100 % (12:35 am)76 % (4:15 pm)
Barometer29.83 in30.01 in (11:35 pm)29.72 in (5:15 am)
Wind Speed4.3 mph15 mph (4:35 pm)
Wind Gust23 mph (4:35 pm)
Weather ElementAverage
Visibility7.6 mi
Wind DirectionS (180.4 °)

Weather ElementTotal
Precipitation---
Heating Degree Days23.1 (Base 65)
Averaged from 71 records on February 13, 2013
WEATHER CONDITIONS BREAKOUT
WIND DIRECTION BREAKOUT
WEATHER BY HOUR - FEBRUARY 13, 2013
[ °C ]   °F
Local TimeTemperatureDewpointHumidityBarometerVisibilityWind DirectionWind SpeedGust SpeedPrecipitationEventsConditions
12:35 AM42.8 °F42.8 °F100 %29.83 in5.0 miNNW (340°)3.5 mphLight Drizzle
12:55 AM42.8 °F42.8 °F100 %29.82 in5.0 miCalmOvercast
1:15 AM42.8 °F42.8 °F100 %29.82 in7.0 miCalmOvercast
1:35 AM42.8 °F42.8 °F100 %29.82 in5.0 miCalmDrizzle
1:55 AM42.8 °F42.8 °F100 %29.80 in7.0 miCalmOvercast
2:15 AM42.8 °F42.8 °F100 %29.80 in7.0 miCalmOvercast
2:35 AM42.8 °F42.8 °F100 %29.80 in5.0 miCalmRainLight Rain
2:55 AM42.8 °F42.8 °F100 %29.79 in4.0 miCalmRainRain
3:15 AM42.8 °F42.8 °F100 %29.78 in3.0 miCalmRainRain
3:35 AM42.8 °F42.8 °F100 %29.77 in3.0 miCalmOvercast
3:55 AM42.8 °F42.8 °F100 %29.76 in3.0 miCalmOvercast
4:15 AM42.8 °F42.8 °F100 %29.75 in4.0 miCalmOvercast
4:35 AM42.8 °F42.8 °F100 %29.74 in5.0 miCalmOvercast
4:55 AM42.8 °F42.8 °F100 %29.73 in7.0 miCalmOvercast
5:15 AM42.8 °F42.8 °F100 %29.72 in7.0 miCalmOvercast
5:35 AM42.8 °F42.8 °F100 %29.72 in7.0 miSW (220°)3.5 mphOvercast
5:55 AM42.8 °F42.8 °F100 %29.72 in3.0 miCalmOvercast
6:15 AM42.8 °F42.8 °F100 %29.73 in3.0 miCalmDrizzle
6:35 AM42.8 °F42.8 °F100 %29.73 in3.0 miCalmDrizzle
6:55 AM42.8 °F42.8 °F100 %29.73 in3.0 miSouth (180°)4.6 mphDrizzle
7:15 AM42.8 °F42.8 °F100 %29.73 in3.0 miSSW (200°)4.6 mphDrizzle
7:35 AM42.8 °F42.8 °F100 %29.73 in4.0 miSouth (190°)4.6 mphLight Drizzle
7:55 AM44.6 °F44.6 °F100 %29.75 in3.0 miSSW (210°)4.6 mphDrizzle
8:15 AM44.6 °F44.6 °F100 %29.74 in3.0 miSSE (160°)5.8 mphDrizzle
8:35 AM44.6 °F44.6 °F100 %29.76 in2.5 miSouth (170°)5.8 mphDrizzle
8:55 AM44.6 °F44.6 °F100 %29.77 in1.8 miSouth (180°)3.5 mphDrizzle
9:15 AM44.6 °F44.6 °F100 %29.77 in2.0 miSouth (180°)3.5 mphDrizzle
9:35 AM44.6 °F44.6 °F100 %29.76 in4.0 miSE (140°)5.8 mphDrizzle
9:55 AM44.6 °F44.6 °F100 %29.77 in3.0 miSSE (150°)4.6 mphDrizzle
10:15 AM44.6 °F44.6 °F100 %29.77 in5.0 miSouth (170°)3.5 mphOvercast
10:35 AM44.6 °F44.6 °F100 %29.78 in10.0 miSouth (190°)4.6 mphOvercast
10:55 AM46.4 °F46.4 °F100 %29.78 in10.0 miSouth (190°)4.6 mphOvercast
11:15 AM46.4 °F46.4 °F100 %29.78 in10.0 miSouth (170°)4.6 mphOvercast
11:35 AM46.4 °F46.4 °F100 %29.78 in10.0 miSSW (200°)4.6 mphOvercast
11:55 AM46.4 °F44.6 °F93 %29.79 in10.0 miSW (220°)8.1 mphOvercast
12:15 PM46.4 °F44.6 °F93 %29.79 in10.0 miSSW (210°)5.8 mphOvercast
12:35 PM46.4 °F44.6 °F93 %29.79 in10.0 miWSW (250°)6.9 mphOvercast
12:55 PM46.4 °F42.8 °F87 %29.80 in10.0 miWSW (240°)5.8 mphOvercast
1:15 PM46.4 °F42.8 °F87 %29.80 in10.0 miWest (280°)5.8 mphOvercast
1:35 PM46.4 °F42.8 °F87 %29.81 in10.0 miWest (280°)10.4 mph17.3 mphOvercast
1:55 PM44.6 °F41.0 °F87 %29.81 in10.0 miWSW (240°)5.8 mphOvercast
2:15 PM46.4 °F41.0 °F81 %29.80 in10.0 miSW (220°)4.6 mphOvercast
2:35 PM46.4 °F41.0 °F81 %29.80 in10.0 miSW (220°)3.5 mphOvercast
2:55 PM46.4 °F41.0 °F81 %29.80 in10.0 miSW (230°)4.6 mphOvercast
3:15 PM46.4 °F41.0 °F81 %29.81 in10.0 miWSW (240°)4.6 mphOvercast
3:35 PM46.4 °F41.0 °F81 %29.82 in10.0 miWest (260°)3.5 mphOvercast
3:55 PM46.4 °F41.0 °F81 %29.83 in10.0 miWest (280°)6.9 mphOvercast
4:15 PM46.4 °F39.2 °F76 %29.83 in10.0 miWNW (300°)10.4 mph17.3 mphOvercast
4:35 PM46.4 °F39.2 °F76 %29.85 in10.0 miNW (310°)15.0 mph23.0 mphMostly Cloudy
4:55 PM44.6 °F37.4 °F76 %29.87 in10.0 miNW (320°)13.8 mph21.9 mphOvercast
5:15 PM44.6 °F37.4 °F76 %29.89 in10.0 miNW (320°)10.4 mph17.3 mphOvercast
5:35 PM42.8 °F37.4 °F81 %29.89 in10.0 miNW (310°)12.7 mphOvercast
5:55 PM42.8 °F35.6 °F76 %29.90 in10.0 miNW (320°)13.8 mphOvercast
6:15 PM42.8 °F37.4 °F81 %29.92 in10.0 miNNW (340°)9.2 mphOvercast
6:35 PM41.0 °F35.6 °F81 %29.92 in10.0 miNW (320°)11.5 mph16.1 mphMostly Cloudy
6:55 PM41.0 °F35.6 °F81 %29.94 in10.0 miNNW (330°)5.8 mphMostly Cloudy
7:15 PM41.0 °F35.6 °F81 %29.95 in10.0 miNNW (340°)6.9 mphOvercast
7:35 PM41.0 °F35.6 °F81 %29.95 in10.0 miNNW (330°)6.9 mphOvercast
7:55 PM41.0 °F35.6 °F81 %29.96 in10.0 miNNW (340°)3.5 mphOvercast
8:15 PM41.0 °F35.6 °F81 %29.96 in10.0 miNW (310°)3.5 mphOvercast
8:35 PM39.2 °F35.6 °F87 %29.96 in10.0 miCalmOvercast
8:55 PM39.2 °F35.6 °F87 %29.97 in10.0 miNW (310°)3.5 mphOvercast
9:15 PM39.2 °F35.6 °F87 %29.97 in10.0 miCalmOvercast
9:35 PM37.4 °F35.6 °F93 %29.97 in10.0 miCalmOvercast
9:55 PM39.2 °F35.6 °F87 %29.98 in10.0 miNW (320°)3.5 mphOvercast
10:15 PM39.2 °F35.6 °F87 %29.98 in10.0 miNW (310°)3.5 mphOvercast
10:35 PM39.2 °F35.6 °F87 %29.99 in10.0 miNW (310°)4.6 mphOvercast
10:55 PM39.2 °F35.6 °F87 %30.00 in10.0 miNW (310°)3.5 mphOvercast
11:15 PM39.2 °F35.6 °F87 %30.00 in10.0 miCalmOvercast
11:35 PM39.2 °F35.6 °F87 %30.01 in10.0 miNW (320°)3.5 mphOvercast
11:55 PM39.2 °F37.4 °F93 %30.01 in10.0 miNNW (330°)4.6 mphOvercast
Hourly data recorded from KDNN, located miles away from Dalton, Georgia







STORIES FROM OUR PARTNERS